[[{"header":{"parameterUnit":"m.s-1","parameterCategory":1,"la1":30.2992,"la2":30.254,"lo1":-89.0895,"lo2":-89.0443,"dy":0.0025,"dx":0.0025,"nx":19,"ny":19,"refTime":"2026-05-01T21:00:00:Z","depth":0,"parameterNumber":2,"parameterNumberName":"U-component_of_WINDS"},"data":[0,0,0,-1.3531,-1.3533,-1.3622,-1.3622,-1.3751,-1.3752,0,0,0,0,0,0,0,0,0,0,0,-1.3512,-1.3513,-1.3531,-1.3533,-1.3622,-1.3622,-1.3751,-1.3752,0,0,0,0,0,0,0,0,0,0,0,-1.3512,-1.3513,-1.3515,-1.3533,-1.3622,-1.3622,-1.375,-1.3678,0,0,0,0,0,0,0,0,0,0,-1.359,-1.358,-1.3513,-1.3515,-1.3534,-1.3622,-1.3622,-1.3675,-1.3683,-1.3717,0,-1.3748,0,-1.3752,-1.3762,-1.3762,0,0,0,-1.3528,-1.3573,-1.359,-1.3515,-1.3535,-1.3621,-1.358,-1.3679,-1.3688,-1.3728,-1.375,-1.3754,-1.3754,-1.3763,-1.3763,-1.3976,-1.3977,0,0,-1.3523,-1.3533,-1.3583,-1.3596,-1.3582,-1.3577,-1.3583,-1.3684,-1.3709,-1.375,-1.3757,-1.3756,-1.3764,-1.3765,-1.3975,-1.3976,0,0,0,-1.3512,-1.353,-1.3544,-1.3591,-1.3606,-1.358,-1.3587,-1.3705,-1.3708,-1.3758,-1.3758,-1.3764,-1.3766,-1.3973,-1.3975,-1.4049,0,0,0,-1.3509,-1.3524,-1.3542,-1.3549,-1.3604,-1.3656,-1.3605,-1.3701,-1.3712,-1.3757,-1.3764,-1.3767,-1.3972,-1.3974,-1.4044,-1.4083,0,0,0,-1.3504,-1.3523,-1.3538,-1.3549,-1.3588,-1.3654,-1.3664,-1.3704,-1.3713,-1.3762,-1.3768,-1.3971,-1.3974,-1.4039,-1.4075,-1.4144,0,0,0,-1.3502,-1.3601,-1.354,-1.3651,-1.3587,-1.3698,-1.3663,-1.3745,-1.3796,-1.3765,-1.3972,-1.3975,-1.4038,-1.4071,-1.4139,-1.4206,-1.4233,0,0,-1.3633,-1.3618,-1.3682,-1.363,-1.3754,-1.3683,-1.3819,-1.3857,-1.3852,-1.3935,-1.394,-1.4045,-1.4075,-1.4143,-1.438,-1.4402,0,0,0,-1.3728,-1.3775,-1.3805,-1.3854,-1.3884,-1.3915,-1.3929,-1.3943,-1.4014,-1.3896,-1.4087,-1.4104,-1.4144,-1.4175,-1.4194,-1.4229,-1.3989,-1.3989,-1.3989,-1.3931,-1.3919,-1.4026,-1.4026,-1.4074,-1.4088,-1.4127,-1.4149,-1.4122,-1.4168,-1.4194,-1.4339,-1.4376,-1.439,-1.4426,-1.4225,-1.4225,-1.4225,-1.4226,-1.4125,-1.4192,-1.4154,-1.4246,-1.4233,-1.431,-1.4329,-1.4308,-1.4379,-1.4318,-1.4352,-1.4289,-1.4414,-1.4446,-1.4231,-1.423,-1.4229,-1.4229,-1.4228,-1.426,-1.429,-1.4304,-1.4374,-1.443,-1.4425,-1.4496,-1.4481,-1.4468,-1.4502,-1.453,-1.4529,-1.4528,-1.4515,-1.4516,-1.4516,-1.4517,-1.4517,-1.4518,-1.4395,-1.4408,-1.4469,-1.451,-1.454,-1.4578,-1.4594,-1.4624,-1.4654,-1.4638,-1.4638,-1.461,-1.4427,-1.4383,-1.4526,-1.4524,-1.4523,-1.4522,-1.4522,-1.4602,-1.4553,-1.4647,-1.4677,-1.4725,-1.4783,-1.4762,-1.4825,-1.4847,-1.4883,-1.4847,-1.4713,-1.4696,-1.4681,-1.4645,-1.4847,-1.4847,-1.4847,-1.4847,-1.4718,-1.4707,-1.4801,-1.4851,-1.4898,-1.489,-1.4999,-1.5012,-1.5019,-1.5033,-1.5001,-1.495,-1.4936,-1.4928,-1.4908,-1.4874,-1.5129,-1.513,-1.513,-1.4847,-1.484,-1.4935,-1.494,-1.4976,-1.5009,-1.5112,-1.5172,-1.5169,-1.5141,-1.5044,-1.5032,-1.4951,-1.4924,-1.4898,-1.4866,-1.4804,0,0]},{"header":{"parameterUnit":"m.s-1","parameterCategory":1,"la1":30.2992,"la2":30.254,"lo1":-89.0895,"lo2":-89.0443,"dy":0.0025,"dx":0.0025,"nx":19,"ny":19,"refTime":"2026-05-01T21:00:00:Z","depth":0,"parameterNumber":3,"parameterNumberName":"V-component_of_WINDS"},"data":[0,0,0,-1.8966,-1.8968,-1.9047,-1.9047,-1.9161,-1.9162,0,0,0,0,0,0,0,0,0,0,0,-1.8949,-1.895,-1.8966,-1.8968,-1.9047,-1.9047,-1.916,-1.9162,0,0,0,0,0,0,0,0,0,0,0,-1.8949,-1.895,-1.8951,-1.8968,-1.9047,-1.9047,-1.916,-1.9096,0,0,0,0,0,0,0,0,0,0,-1.9018,-1.9008,-1.895,-1.8951,-1.8969,-1.9047,-1.9047,-1.9093,-1.91,-1.913,0,-1.9157,0,-1.9161,-1.917,-1.917,0,0,0,-1.8963,-1.9002,-1.9018,-1.8951,-1.897,-1.9047,-1.901,-1.9097,-1.9105,-1.914,-1.9159,-1.9162,-1.9163,-1.9171,-1.9171,-1.9357,-1.9358,0,0,-1.8959,-1.8967,-1.9012,-1.9023,-1.9011,-1.9007,-1.9012,-1.9102,-1.9123,-1.9159,-1.9165,-1.9165,-1.9172,-1.9173,-1.9356,-1.9357,0,0,0,-1.895,-1.8964,-1.8977,-1.9019,-1.9032,-1.901,-1.9016,-1.9119,-1.9123,-1.9166,-1.9166,-1.9172,-1.9174,-1.9355,-1.9356,-1.942,0,0,0,-1.8947,-1.8959,-1.8975,-1.8981,-1.9031,-1.9077,-1.9031,-1.9117,-1.9126,-1.9166,-1.9172,-1.9175,-1.9354,-1.9356,-1.9416,-1.9449,0,0,0,-1.8942,-1.8958,-1.8972,-1.8982,-1.9016,-1.9075,-1.9083,-1.9118,-1.9127,-1.917,-1.9175,-1.9353,-1.9355,-1.9412,-1.9443,-1.9503,0,0,0,-1.8939,-1.9026,-1.8973,-1.907,-1.9015,-1.9113,-1.9083,-1.9155,-1.9199,-1.9173,-1.9354,-1.9356,-1.941,-1.9439,-1.9498,-1.9556,-1.958,0,0,-1.9054,-1.904,-1.9097,-1.9052,-1.9161,-1.91,-1.9219,-1.9252,-1.9248,-1.9321,-1.9326,-1.9417,-1.9442,-1.9502,-1.9707,-1.9726,0,0,0,-1.9136,-1.9177,-1.9204,-1.9247,-1.9274,-1.9301,-1.9315,-1.9327,-1.9389,-1.9287,-1.9453,-1.9468,-1.9502,-1.953,-1.9546,-1.9576,-1.9368,-1.9368,-1.9368,-1.9312,-1.9302,-1.9396,-1.9397,-1.9439,-1.9453,-1.9487,-1.9506,-1.9483,-1.9523,-1.9546,-1.9671,-1.9703,-1.9716,-1.9747,-1.9573,-1.9573,-1.9573,-1.9573,-1.9481,-1.9539,-1.9507,-1.9588,-1.9578,-1.9645,-1.9662,-1.9644,-1.9706,-1.9653,-1.9683,-1.9628,-1.9737,-1.9764,-1.9578,-1.9577,-1.9577,-1.9576,-1.9576,-1.9597,-1.9624,-1.9637,-1.9699,-1.9748,-1.9745,-1.9806,-1.9794,-1.9783,-1.9813,-1.9837,-1.9836,-1.9836,-1.9825,-1.9825,-1.9825,-1.9826,-1.9826,-1.9826,-1.9714,-1.9727,-1.978,-1.9816,-1.9843,-1.9877,-1.9891,-1.9918,-1.9944,-1.9931,-1.9931,-1.9907,-1.9748,-1.971,-1.9833,-1.9832,-1.9831,-1.9831,-1.983,-1.9894,-1.9851,-1.9934,-1.996,-2.0003,-2.0054,-2.0037,-2.0092,-2.0112,-2.0143,-2.0112,-1.9996,-1.9981,-1.9968,-1.9937,-2.0112,-2.0112,-2.0112,-2.0112,-1.9994,-1.9985,-2.0067,-2.0112,-2.0153,-2.0146,-2.0242,-2.0255,-2.0261,-2.0273,-2.0245,-2.0202,-2.0189,-2.0183,-2.0165,-2.0136,-2.0357,-2.0357,-2.0358,-2.0106,-2.01,-2.0183,-2.0188,-2.0221,-2.025,-2.034,-2.0393,-2.0391,-2.0367,-2.0283,-2.0273,-2.0202,-2.0179,-2.0157,-2.0129,-2.0076,0,0]}]]